Wind_Speed
12 13 14 15 14 13 13 14 15 15 14 12 12 12 12 11 13 15 18 19 21 23 24 24 23 23 25 26 27 26 25 24 19 18 16 19 19 20 21 21 20 18 18
15 18 20 19 18 15 14 14 16 15 14 15 15 15 15 16 18 18 18 20 22 22 22 23 22 23 24 26 27 25 23 25 25 23 22 21 23 21 20 20 19 16 16
19 20 22 21 20 17 15 16 17 16 16 17 16 16 16 18 20 19 19 20 22 22 21 20 21 22 22 23 24 23 21 23 26 26 26 24 22 24 23 21 19 17 16
23 23 22 21 20 19 19 20 19 19 18 19 18 17 19 21 21 20 20 20 21 23 22 21 20 22 23 23 23 23 22 23 25 28 29 29 29 28 27 25 21 20 20
30 28 24 21 22 22 23 24 23 22 21 20 21 21 22 22 20 20 21 20 22 23 22 22 22 21 23 26 26 25 23 23 25 27 30 32 32 34 33 32 23 24 26
35 33 27 23 23 24 26 26 25 24 25 23 22 22 24 22 19 20 20 21 23 23 23 22 23 23 24 26 29 28 25 24 23 25 28 29 32 30 31 34 28 22 26
34 35 32 26 25 26 27 27 25 24 27 26 24 24 25 23 21 20 22 21 21 21 22 22 24 25 26 27 28 28 28 25 24 24 25 26 27 26 22 28 28 31 30
33 37 39 34 33 30 28 27 26 28 27 28 25 24 25 24 23 22 23 23 23 22 22 25 27 29 31 30 29 27 27 25 22 21 21 24 24 22 18 21 23 27 23
36 41 44 42 36 29 27 28 27 29 28 26 24 24 26 27 26 25 22 24 26 24 24 26 29 30 32 31 30 25 24 23 20 20 20 22 21 17 11 11 17 16 15
46 46 47 43 38 33 30 28 30 34 33 31 28 28 28 29 30 29 27 25 26 26 24 26 29 31 31 28 27 25 23 21 19 18 18 20 18 15 19 16 16 17 20
38 45 49 42 41 43 38 32 33 39 39 35 32 32 31 31 31 29 28 27 26 26 25 27 31 31 30 26 22 21 21 18 18 16 16 18 17 19 19 19 20 23 24
35 46 53 49 50 46 41 37 33 36 36 36 34 33 34 32 32 30 29 30 29 28 28 28 29 30 28 24 20 16 17 17 18 15 13 15 13 14 18 23 20 17 16
33 38 47 50 42 38 38 35 36 39 38 37 35 34 34 34 32 30 27 30 31 31 30 29 28 29 28 24 22 18 16 17 17 14 11 11 10 12 16 17 13 10 11
27 31 32 33 29 32 36 36 35 34 35 35 34 34 32 32 32 30 28 30 31 33 32 29 28 29 28 24 22 20 18 16 15 14 11 11 15 16 16 13 9 6 6
26 35 34 30 29 31 34 37 34 32 32 32 32 33 32 32 29 29 29 31 31 32 32 29 28 29 28 24 21 19 17 17 17 15 15 14 14 13 11 8 5 6 8
29 34 36 37 35 33 36 34 31 32 33 35 35 33 31 31 28 28 30 31 30 30 30 29 28 28 26 22 20 20 18 17 16 18 21 16 13 9 8 7 8 8 7
27 25 27 31 30 29 33 32 31 33 34 33 31 29 29 29 28 28 29 29 29 30 29 30 29 28 27 24 19 17 15 15 17 20 18 16 13 11 12 11 9 8 8
23 24 23 23 28 32 34 34 33 32 32 32 31 29 29 29 29 28 29 29 30 29 28 28 30 26 25 24 20 16 14 15 15 17 16 16 15 16 18 15 13 12 10
26 26 26 26 29 31 32 33 34 34 34 33 32 31 30 29 30 29 29 29 29 28 28 28 29 26 26 24 22 18 16 15 15 16 13 13 15 17 18 18 17 15 12
26 26 27 29 30 31 33 35 35 35 35 35 34 33 31 30 32 31 31 30 29 28 28 30 28 26 26 25 23 18 21 18 14 15 14 15 18 18 18 19 19 17 16
29 30 31 32 33 33 34 34 35 35 35 36 36 35 32 31 32 32 32 32 31 30 29 29 29 28 27 26 24 22 23 21 18 15 15 15 15 17 17 18 20 21 22
36 36 38 38 38 38 39 39 40 39 39 36 35 36 37 37 34 32 29 28 29 28 27 28 28 28 28 28 29 28 27 24 22 16 15 17 17 15 14 15 19 23 25
44 44 44 44 45 44 42 41 42 41 39 36 34 34 33 34 34 33 30 27 26 26 28 28 28 29 29 31 30 28 31 30 26 24 19 18 20 19 17 18 20 23 25
48 48 48 47 47 46 42 40 39 38 35 33 32 33 32 33 33 33 33 34 33 32 31 30 30 32 33 30 33 34 32 34 32 29 26 23 22 21 20 20 22 25 25
46 46 47 47 45 44 41 39 37 36 33 30 30 30 31 33 34 36 36 36 36 36 36 34 35 36 38 38 35 32 28 25 23 21 28 29 27 24 18 18 22 22 22
38 36 35 38 39 39 38 38 38 37 36 34 33 33 32 31 34 36 36 36 36 36 36 36 37 37 38 41 39 34 35 32 27 29 25 23 26 26 22 21 22 24 23
Wind_Direction
276 273 275 271 263 260 270 280 285 286 279 268 267 268 267 276 293 301 310 310 304 300 299 300 293 294 299 304 307 305 302 303 290 282 268 263 270 271 270 270 275 271 253
275 274 274 277 279 276 272 276 283 282 274 270 271 265 266 280 290 292 298 305 307 305 300 299 297 297 300 302 305 307 302 294 292 284 282 275 267 274 271 263 262 261 253
274 273 271 268 273 274 275 278 279 279 275 273 271 270 278 287 291 292 294 299 304 305 300 295 295 296 298 299 302 304 303 296 290 286 282 282 276 275 274 258 252 249 247
265 263 264 261 263 269 277 280 279 278 274 274 276 279 284 289 294 294 295 296 302 306 304 298 294 293 294 296 298 299 298 298 294 287 284 281 277 272 265 257 239 243 245
253 256 261 261 262 268 274 276 279 279 273 271 276 283 287 290 292 294 294 293 297 300 302 300 295 291 291 294 295 294 296 294 292 289 283 283 295 287 270 259 244 246 242
248 248 252 260 266 270 270 273 279 280 276 272 275 279 282 285 288 291 293 293 296 297 298 298 297 295 293 294 296 297 296 293 291 288 288 288 297 290 280 248 249 261 251
258 252 250 249 256 264 270 273 273 275 279 278 277 281 282 283 284 290 292 292 293 294 293 294 296 296 296 297 297 297 295 292 289 284 284 286 294 294 288 235 243 259 260
257 257 258 254 256 263 269 271 271 273 275 280 281 283 283 281 283 288 290 290 290 291 290 293 297 299 298 298 297 296 292 288 286 282 277 279 287 294 284 228 248 260 254
262 259 261 263 261 261 269 273 270 275 276 275 278 279 280 285 288 289 288 285 283 286 289 292 296 296 295 296 295 293 288 283 280 280 276 273 283 288 237 275 291 285 273
276 252 251 263 260 260 268 271 271 272 273 274 274 274 277 284 288 293 293 289 284 282 284 287 294 297 295 293 291 291 286 279 276 278 270 269 274 266 267 286 300 304 302
267 245 241 255 259 260 263 266 271 267 267 270 272 275 276 279 283 289 292 289 285 284 283 287 295 300 296 290 289 293 284 276 276 278 268 262 269 273 278 296 307 302 297
264 250 244 249 254 260 262 265 270 268 263 264 268 273 278 280 283 285 286 283 281 282 282 285 292 297 293 287 288 292 285 277 274 275 268 263 281 275 276 286 295 305 292
257 250 250 249 251 260 264 257 271 266 262 263 267 270 276 279 281 281 277 275 276 277 277 279 285 290 288 284 282 283 285 279 270 268 265 275 273 267 274 286 295 288 276
230 231 238 234 256 264 256 257 264 264 263 266 270 275 278 280 281 282 277 272 269 271 274 278 281 284 282 279 279 279 275 275 270 265 261 251 259 268 278 285 285 268 217
211 219 230 241 260 263 264 264 263 260 263 270 276 278 281 283 283 281 276 273 269 269 270 273 276 278 280 278 274 276 272 270 265 270 272 264 267 273 270 261 241 212 192
221 229 242 251 250 255 264 265 263 264 271 276 277 276 277 279 281 279 276 273 269 267 266 266 271 274 273 276 277 275 272 263 252 249 267 263 254 246 230 207 198 205 205
238 243 243 248 248 254 262 265 268 271 273 274 275 276 278 277 277 278 278 276 273 269 266 264 267 274 270 270 274 277 269 261 258 257 258 256 241 217 198 199 209 218 228
255 252 246 243 252 259 263 267 270 273 274 272 272 273 274 274 274 277 277 277 277 273 272 268 264 266 264 262 265 268 259 253 258 254 250 242 231 211 200 206 218 229 236
255 259 262 260 261 263 264 266 267 270 270 269 269 270 271 270 270 272 275 275 274 270 267 268 264 261 258 259 263 263 258 244 243 248 236 227 226 219 214 218 222 230 242
263 264 267 267 266 266 266 265 265 267 268 269 271 272 270 270 270 271 273 272 270 267 261 261 262 257 257 263 264 255 247 233 244 248 237 227 223 221 222 224 226 234 249
266 264 264 266 266 266 266 268 270 270 271 273 273 272 267 268 271 276 275 268 265 263 256 255 258 259 258 254 256 250 255 242 242 246 242 237 236 236 235 237 245 251 256
268 267 268 268 267 266 267 267 268 269 270 271 271 268 265 265 269 272 273 267 261 255 250 249 252 256 255 249 248 249 248 251 241 239 244 243 242 246 249 254 259 264 266
261 261 263 265 265 265 264 264 266 268 269 269 268 269 269 265 263 264 262 259 257 253 249 248 251 253 256 250 245 247 254 251 250 245 237 239 242 245 244 247 262 273 274
262 264 264 262 262 263 263 264 266 268 268 268 268 267 263 258 257 258 257 257 258 257 252 248 248 249 256 258 242 233 242 243 251 242 235 237 239 249 247 245 255 263 268
266 266 265 265 264 263 262 260 260 261 261 262 262 261 259 255 254 253 252 254 257 258 255 254 254 252 253 255 252 250 245 231 222 232 230 230 238 244 238 240 247 258 264
266 267 268 269 266 262 259 257 255 255 254 253 255 257 257 258 256 251 250 251 254 255 252 252 253 253 253 255 256 253 247 239 229 221 225 229 236 245 244 242 247 256 261
Height
5912 5911 5910 5909 5909 5908 5906 5906 5906 5905 5904 5903 5902 5901 5899 5897 5895 5893 5891 5890 5889 5887 5885 5883 5882 5880 5878 5876 5874 5872 5871 5870 5871 5871 5872 5871 5870 5870 5870 5870 5871 5871 5871
5908 5908 5907 5906 5905 5905 5903 5902 5901 5901 5901 5901 5900 5898 5896 5895 5893 5891 5889 5886 5885 5884 5882 5880 5878 5877 5875 5873 5871 5869 5868 5867 5867 5866 5867 5867 5867 5867 5866 5865 5866 5867 5867
5903 5903 5903 5902 5902 5902 5901 5899 5897 5896 5897 5897 5896 5895 5893 5892 5890 5888 5885 5883 5881 5880 5879 5877 5875 5873 5872 5869 5868 5866 5865 5863 5863 5863 5862 5861 5863 5863 5862 5861 5861 5862 5863
5897 5897 5897 5897 5897 5898 5898 5896 5893 5892 5891 5891 5891 5889 5889 5888 5887 5884 5881 5879 5877 5876 5874 5873 5871 5869 5868 5866 5864 5862 5861 5859 5859 5859 5859 5858 5858 5859 5858 5858 5857 5857 5858
5888 5889 5890 5891 5891 5891 5893 5892 5891 5889 5887 5886 5886 5885 5884 5883 5882 5880 5879 5877 5874 5871 5869 5868 5866 5865 5863 5862 5859 5857 5856 5855 5854 5854 5854 5853 5851 5850 5851 5852 5852 5852 5852
5881 5882 5882 5884 5884 5885 5886 5886 5885 5885 5884 5882 5881 5880 5878 5878 5876 5876 5874 5872 5870 5868 5865 5863 5862 5860 5859 5857 5854 5852 5851 5849 5849 5848 5847 5847 5845 5843 5841 5842 5846 5845 5845
5878 5878 5878 5876 5877 5878 5879 5879 5879 5879 5879 5878 5876 5875 5873 5872 5870 5870 5869 5867 5865 5863 5861 5859 5857 5855 5853 5851 5849 5848 5846 5844 5843 5842 5841 5840 5840 5837 5835 5836 5839 5840 5840
5875 5874 5874 5870 5869 5872 5873 5874 5874 5873 5872 5873 5871 5869 5868 5868 5867 5865 5864 5863 5860 5858 5857 5855 5852 5851 5849 5846 5843 5842 5841 5839 5837 5836 5837 5836 5836 5834 5831 5832 5835 5836 5835
5865 5867 5868 5866 5864 5865 5866 5867 5868 5868 5867 5866 5865 5864 5863 5862 5861 5861 5859 5858 5856 5853 5853 5851 5849 5847 5844 5841 5838 5836 5835 5834 5832 5830 5831 5831 5832 5832 5830 5833 5833 5832 5832
5853 5853 5858 5859 5859 5858 5858 5859 5861 5861 5861 5861 5860 5858 5858 5857 5856 5854 5853 5853 5853 5850 5847 5846 5843 5841 5839 5835 5833 5831 5829 5829 5827 5826 5826 5827 5828 5829 5829 5830 5830 5829 5829
5840 5841 5844 5848 5849 5849 5850 5852 5853 5853 5854 5854 5854 5853 5851 5851 5850 5848 5846 5845 5845 5845 5842 5839 5838 5835 5833 5830 5828 5826 5825 5824 5824 5823 5823 5823 5824 5825 5826 5826 5825 5825 5825
5825 5826 5831 5836 5839 5841 5841 5843 5844 5845 5845 5846 5845 5846 5846 5845 5845 5843 5841 5838 5837 5837 5836 5833 5832 5830 5827 5826 5825 5823 5821 5820 5819 5820 5820 5821 5821 5821 5823 5823 5822 5821 5820
5812 5813 5818 5826 5831 5831 5831 5833 5835 5836 5837 5837 5837 5836 5838 5837 5836 5836 5833 5831 5830 5829 5828 5826 5826 5825 5822 5820 5820 5820 5818 5816 5815 5815 5815 5816 5817 5818 5819 5819 5819 5818 5817
5803 5807 5811 5819 5822 5822 5823 5824 5825 5825 5828 5829 5829 5829 5828 5829 5828 5827 5825 5824 5822 5821 5821 5821 5820 5819 5817 5815 5815 5814 5814 5812 5811 5811 5810 5812 5813 5813 5813 5814 5814 5814 5814
5800 5805 5808 5812 5814 5814 5814 5817 5816 5817 5820 5821 5821 5821 5821 5820 5819 5818 5818 5817 5817 5815 5814 5813 5813 5813 5812 5811 5809 5809 5810 5809 5808 5807 5806 5807 5808 5808 5809 5810 5810 5812 5814
5797 5799 5802 5805 5807 5806 5809 5810 5810 5810 5811 5813 5814 5813 5812 5812 5811 5810 5810 5810 5809 5808 5807 5806 5805 5806 5807 5806 5805 5803 5804 5805 5804 5804 5803 5804 5803 5804 5806 5808 5810 5813 5815
5793 5794 5795 5797 5798 5799 5801 5802 5803 5804 5805 5805 5804 5805 5805 5804 5804 5804 5803 5803 5802 5802 5800 5800 5800 5800 5801 5801 5801 5800 5799 5799 5799 5799 5799 5800 5800 5801 5803 5805 5808 5811 5813
5785 5786 5786 5787 5790 5792 5793 5795 5796 5798 5798 5798 5797 5798 5798 5797 5797 5797 5797 5796 5797 5798 5796 5795 5795 5795 5797 5796 5795 5796 5796 5796 5796 5796 5796 5797 5798 5799 5801 5804 5806 5809 5810
5781 5781 5781 5781 5783 5785 5787 5788 5790 5790 5791 5790 5790 5790 5790 5789 5791 5790 5790 5789 5790 5789 5790 5790 5790 5791 5792 5791 5791 5791 5792 5792 5792 5792 5792 5794 5796 5798 5800 5801 5803 5806 5808
5775 5774 5775 5776 5777 5779 5781 5782 5782 5783 5782 5782 5782 5782 5783 5782 5783 5783 5782 5782 5782 5782 5783 5783 5783 5784 5784 5785 5786 5786 5787 5787 5787 5787 5788 5790 5793 5795 5797 5799 5802 5803 5804
5769 5769 5769 5769 5769 5771 5772 5772 5772 5773 5773 5774 5774 5775 5776 5776 5775 5775 5775 5775 5775 5775 5776 5777 5777 5778 5778 5779 5780 5780 5780 5781 5782 5783 5785 5787 5789 5792 5794 5796 5798 5799 5800
5761 5761 5760 5760 5760 5761 5761 5761 5762 5763 5764 5764 5765 5767 5767 5767 5767 5768 5768 5767 5767 5768 5768 5770 5772 5772 5772 5772 5772 5773 5774 5776 5776 5778 5780 5782 5784 5787 5789 5792 5793 5793 5794
5751 5751 5750 5750 5749 5750 5751 5750 5750 5752 5753 5754 5755 5756 5757 5757 5758 5759 5761 5762 5761 5761 5762 5763 5764 5765 5765 5765 5767 5767 5766 5768 5770 5771 5774 5776 5778 5781 5784 5787 5787 5787 5787
5738 5738 5738 5738 5739 5740 5741 5741 5741 5741 5742 5743 5744 5745 5747 5749 5750 5750 5752 5753 5753 5753 5753 5754 5755 5756 5757 5758 5759 5761 5761 5761 5764 5767 5768 5770 5771 5773 5776 5779 5781 5781 5782
5726 5725 5726 5726 5727 5728 5729 5729 5730 5731 5732 5734 5735 5737 5738 5739 5740 5741 5742 5743 5744 5744 5745 5745 5746 5747 5748 5749 5751 5752 5754 5755 5758 5758 5758 5761 5763 5766 5769 5771 5773 5774 5775
5716 5716 5716 5715 5715 5716 5717 5718 5719 5721 5722 5723 5725 5727 5728 5729 5731 5731 5732 5733 5734 5734 5734 5734 5736 5738 5739 5740 5742 5744 5745 5747 5749 5750 5752 5754 5755 5759 5761 5763 5765 5768 5769